Wolf Creek Pass, CO

2:48 AM MDT on April 29, 2017 (GMT -0600)
Wolf Creek Pass

Weather History for KCPW - September, 2013

Change the Weather History Date:

Friday, September 27, 2013

  Actual Average (KALS) Record (KALS)
Temperature  
Mean Temperature 25 °F -  
Max Temperature 35 °F 71 °F 84 °F (2010)
Min Temperature 15 °F 33 °F 21 °F (1934)
Degree Days  
Heating Degree Days 40    
Moisture  
Dew Point 26 °F    
Average Humidity 96    
Maximum Humidity 100    
Minimum Humidity 70    
Precipitation  
Precipitation 0.96 in - - ()
Sea Level Pressure  
Sea Level Pressure 30.11 in    
Wind  
Wind Speed 21 mph (SW)    
Max Wind Speed 37 mph    
Max Gust Speed 56 mph    
Visibility 3 miles    
Events Snow    
Averages and records for this station are not official NWS values.
T = Trace of Precipitation, MM = Missing Value Source: NWS Daily Summary

Daily Weather History Graph

Daily Weather History Graph

Search for Another Location

Airport or City:

Trip Planner

Search our weather history database for the weather conditions in past years. The results will help you decide how hot, cold, wet, or windy it might be!

Date:

Astronomy

Sep. 27, 2013 Rise Set
Actual Time 6:59 AM MDT 6:55 PM MDT
Civil Twilight 6:33 AM MDT 7:21 PM MDT
Nautical Twilight 6:03 AM MDT 7:52 PM MDT
Astronomical Twilight 5:32 AM MDT 8:22 PM MDT
Moon 12:04 AM MDT (9/27) 2:29 PM MDT (9/27)
Length of Visible Light 12h 48m
Length of Day
11h 56m
Last Quarter, 44% of the Moon is Illuminated
Sep 27
Last Quarter
Oct 4
New
Oct 11
First Quarter
Oct 18
Full
Oct 26
Last Quarter

Hourly Weather History & Observations

Time (MDT) Temp. Windchill Dew Point Humidity Pressure Visibility Wind Dir Wind Speed Gust Speed Precip Events Conditions
12:04 AM 35.6 °F 24.5 °F 26.6 °F 70% 30.16 in 10.0 mi SW 20.7 mph 39.1 mph N/A   Overcast
12:24 AM 35.6 °F 25.2 °F 26.6 °F 70% 30.17 in 10.0 mi SW 18.4 mph 36.8 mph N/A   Overcast
12:44 AM 35.6 °F 24.2 °F 26.6 °F 70% 30.17 in 10.0 mi SSW 21.9 mph 38.0 mph N/A   Overcast
1:04 AM 35.6 °F 24.5 °F 26.6 °F 70% 30.15 in 10.0 mi SW 20.7 mph 40.3 mph N/A   Overcast
1:24 AM 33.8 °F 24.8 °F 26.6 °F 75% 30.15 in 10.0 mi SW 12.7 mph 34.5 mph N/A   Overcast
1:44 AM 33.8 °F 23.5 °F 28.4 °F 81% 30.14 in 10.0 mi SW 16.1 mph 33.4 mph N/A   Overcast
2:04 AM 33.8 °F 19.9 °F 28.4 °F 81% 30.14 in 5.0 mi SW 31.1 mph 46.0 mph N/A Snow Light Snow
2:24 AM 32.0 °F 20.1 °F 30.2 °F 93% 30.13 in 4.0 mi SSW 19.6 mph 38.0 mph 0.01 in Snow Light Snow
2:44 AM 32.0 °F 19.5 °F 30.2 °F 93% 30.13 in 5.0 mi SSW 21.9 mph 39.1 mph 0.02 in Snow Light Snow
3:04 AM 32.0 °F 20.8 °F 30.2 °F 93% 30.12 in 7.0 mi SW 17.3 mph 29.9 mph N/A Snow Light Snow
3:24 AM 32.0 °F 20.5 °F 30.2 °F 93% 30.11 in 4.0 mi SSW 18.4 mph 36.8 mph 0.02 in Snow Light Snow
3:44 AM 32.0 °F 21.6 °F 30.2 °F 93% 30.09 in 10.0 mi SSW 15.0 mph 26.5 mph 0.02 in   Overcast
4:04 AM 32.0 °F 19.2 °F 30.2 °F 93% 30.07 in 10.0 mi SSW 23.0 mph 39.1 mph N/A   Overcast
4:24 AM 33.8 °F 22.2 °F 30.2 °F 87% 30.05 in 10.0 mi SSW 20.7 mph 43.7 mph N/A   Overcast
4:44 AM 33.8 °F 21.9 °F 30.2 °F 87% 30.06 in 10.0 mi SSW 21.9 mph 35.7 mph N/A   Overcast
5:04 AM 33.8 °F 22.2 °F 30.2 °F 87% 30.05 in 7.0 mi SSW 20.7 mph 43.7 mph N/A Snow Light Snow
5:24 AM 32.0 °F 18.1 °F 32.0 °F 100% 30.06 in 2.5 mi SSW 27.6 mph 50.6 mph 0.01 in Snow Light Snow
5:44 AM 32.0 °F 18.1 °F 32.0 °F 100% 30.05 in 0.2 mi SSW 27.6 mph 47.2 mph 0.02 in Snow Heavy Snow
6:04 AM 32.0 °F 19.8 °F 32.0 °F 100% 30.06 in 0.2 mi SW 20.7 mph 35.7 mph N/A Snow Snow
6:24 AM 32.0 °F 20.5 °F 32.0 °F 100% 30.07 in 0.2 mi SSW 18.4 mph 33.4 mph 0.03 in Snow Heavy Snow
6:44 AM 32.0 °F 19.2 °F 32.0 °F 100% 30.06 in 0.2 mi SW 23.0 mph 38.0 mph 0.08 in Snow Heavy Snow
7:04 AM 32.0 °F 18.1 °F 32.0 °F 100% 30.07 in 0.2 mi SW 27.6 mph 56.4 mph 0.03 in Snow Heavy Snow
7:24 AM 32.0 °F 20.1 °F 32.0 °F 100% 30.07 in 0.2 mi SSW 19.6 mph 51.8 mph 0.10 in Snow Heavy Snow
7:44 AM 32.0 °F 19.5 °F 32.0 °F 100% 30.07 in 0.2 mi SSW 21.9 mph 47.2 mph 0.10 in Snow Heavy Snow
8:04 AM 32.0 °F 19.2 °F 32.0 °F 100% 30.05 in 0.2 mi SW 23.0 mph 38.0 mph 0.01 in Snow Heavy Snow
8:24 AM 32.0 °F 18.4 °F 32.0 °F 100% 30.04 in 0.2 mi SSW 26.5 mph 51.8 mph 0.13 in Snow Heavy Snow
8:44 AM 32.0 °F 18.1 °F 32.0 °F 100% 30.04 in 0.2 mi SW 27.6 mph 55.2 mph 0.20 in Snow Heavy Snow
9:04 AM 32.0 °F 21.6 °F 32.0 °F 100% 30.06 in 0.2 mi SW 15.0 mph 47.2 mph 0.02 in Snow Heavy Snow
9:24 AM 30.2 °F 14.1 °F 30.2 °F 100% 30.06 in 0.2 mi SW 35.7 mph 47.2 mph 0.09 in Snow Heavy Snow
9:44 AM 30.2 °F 15.2 °F 30.2 °F 100% 30.07 in 0.2 mi SW 29.9 mph 52.9 mph 0.15 in Snow Heavy Snow
10:04 AM 30.2 °F 15.4 °F 30.2 °F 100% 30.08 in 0.2 mi SW 28.8 mph 46.0 mph 0.02 in Snow Light Snow
10:24 AM 28.4 °F 13.3 °F 28.4 °F 100% 30.07 in 0.2 mi SW 27.6 mph 44.9 mph 0.09 in Snow Heavy Snow
10:44 AM 28.4 °F 15.1 °F 28.4 °F 100% 30.08 in 0.2 mi SW 20.7 mph 38.0 mph 0.15 in Snow Snow
11:04 AM 28.4 °F - 28.4 °F 100% 30.08 in 0.2 mi North - - 0.02 in Snow Snow
11:24 AM 28.4 °F 13.3 °F 28.4 °F 100% 30.08 in 0.2 mi SW 27.6 mph 46.0 mph 0.05 in Snow Heavy Snow
11:44 AM 28.4 °F 17.0 °F 28.4 °F 100% 30.09 in 0.2 mi SW 15.0 mph - 0.10 in Snow Heavy Snow
12:04 PM 26.6 °F - 26.6 °F 100% 30.08 in 0.2 mi North - - N/A Snow Snow
12:24 PM 28.4 °F - 28.4 °F 100% 30.08 in 0.2 mi North - - 0.03 in Snow Snow
12:44 PM 26.6 °F - 26.6 °F 100% 30.08 in 0.2 mi North - - 0.03 in Snow Heavy Snow
1:04 PM 26.6 °F 12.0 °F 26.6 °F 100% 30.08 in 0.2 mi SW 23.0 mph 31.1 mph N/A Snow Heavy Snow
1:24 PM 26.6 °F 13.4 °F 26.6 °F 100% 30.08 in 0.2 mi SW 18.4 mph 39.1 mph 0.02 in Snow Heavy Snow
1:44 PM 26.6 °F 12.7 °F 26.6 °F 100% 30.07 in 0.2 mi SSW 20.7 mph 51.8 mph 0.06 in Snow Heavy Snow
2:04 PM 26.6 °F - 26.6 °F 100% 30.06 in 0.2 mi North - - N/A Snow Heavy Snow
2:24 PM 23.0 °F - 23.0 °F 100% 30.05 in 0.2 mi North - - 0.01 in Snow Heavy Snow
2:44 PM 21.2 °F 2.7 °F 21.2 °F 100% 30.06 in 0.2 mi SW 31.1 mph 51.8 mph 0.01 in Snow Heavy Snow
3:04 PM 21.2 °F 1.4 °F 21.2 °F 100% 30.06 in 0.2 mi SW 36.8 mph 52.9 mph N/A Snow Heavy Snow
3:24 PM 21.2 °F 3.0 °F 19.4 °F 93% 30.07 in 0.2 mi SW 29.9 mph 43.7 mph 0.01 in Snow Snow
3:44 PM 21.2 °F 6.0 °F 21.2 °F 100% 30.08 in 0.2 mi SW 19.6 mph 33.4 mph 0.01 in Snow Light Snow
4:04 PM 21.2 °F 5.2 °F 21.2 °F 100% 30.08 in 0.2 mi SW 21.9 mph 31.1 mph N/A Snow Heavy Snow
4:24 PM 21.2 °F 5.2 °F 21.2 °F 100% 30.09 in 0.2 mi SW 21.9 mph 34.5 mph N/A Snow Heavy Snow
4:44 PM 23.0 °F 6.6 °F 23.0 °F 100% 30.09 in 0.2 mi SSW 25.3 mph 41.4 mph N/A Snow Light Snow
5:04 PM 23.0 °F 8.0 °F 21.2 °F 93% 30.10 in 0.2 mi SW 20.7 mph 39.1 mph N/A Snow Heavy Snow
5:24 PM 23.0 °F 7.2 °F 23.0 °F 100% 30.10 in 0.2 mi SW 23.0 mph 36.8 mph N/A Snow Heavy Snow
5:44 PM 23.0 °F 6.0 °F 23.0 °F 100% 30.11 in 0.2 mi SW 27.6 mph 40.3 mph N/A Snow Light Snow
6:04 PM 21.2 °F 3.9 °F 21.2 °F 100% 30.12 in 1.2 mi SW 26.5 mph 44.9 mph N/A   Overcast
6:24 PM 23.0 °F 5.4 °F 21.2 °F 93% 30.13 in 0.2 mi SW 29.9 mph 42.6 mph N/A Snow Light Snow
6:44 PM 23.0 °F 6.3 °F 23.0 °F 100% 30.13 in 0.2 mi WSW 26.5 mph 38.0 mph N/A Snow Light Snow
7:04 PM 23.0 °F 6.9 °F 23.0 °F 100% 30.13 in 0.2 mi SW 24.2 mph 42.6 mph N/A Snow Snow
7:24 PM 23.0 °F 5.1 °F 23.0 °F 100% 30.15 in 0.2 mi SW 31.1 mph 41.4 mph 0.01 in Snow Heavy Snow
7:44 PM 23.0 °F 6.0 °F 23.0 °F 100% 30.17 in 0.5 mi SW 27.6 mph 39.1 mph 0.01 in Snow Light Snow
8:04 PM 21.2 °F 4.9 °F 21.2 °F 100% 30.19 in 2.5 mi SW 23.0 mph 34.5 mph N/A   Overcast
8:24 PM 21.2 °F 7.8 °F 21.2 °F 100% 30.19 in 4.0 mi SW 15.0 mph 29.9 mph N/A   Mostly Cloudy
8:44 PM 21.2 °F 7.3 °F 21.2 °F 100% 30.20 in 1.2 mi SW 16.1 mph 19.6 mph N/A   Overcast
9:04 PM 21.2 °F 8.9 °F 21.2 °F 100% 30.22 in 5.0 mi WSW 12.7 mph - N/A   Overcast
9:24 PM 21.2 °F 10.1 °F 21.2 °F 100% 30.22 in 2.5 mi SW 10.4 mph 18.4 mph N/A   Overcast
9:44 PM 19.4 °F 6.0 °F 19.4 °F 100% 30.22 in 7.0 mi SW 13.8 mph - N/A   Overcast
10:04 PM 19.4 °F 4.5 °F 19.4 °F 100% 30.22 in 10.0 mi SW 17.3 mph 23.0 mph N/A   Scattered Clouds
10:24 PM 19.4 °F 4.1 °F 17.6 °F 93% 30.22 in 10.0 mi SW 18.4 mph 26.5 mph N/A   Clear
10:44 PM 17.6 °F 5.7 °F 17.6 °F 100% 30.24 in 10.0 mi WSW 10.4 mph 21.9 mph N/A   Clear
11:04 PM 17.6 °F 4.3 °F 15.8 °F 93% 30.24 in 10.0 mi WSW 12.7 mph 20.7 mph N/A   Clear
11:24 PM 15.8 °F 5.1 °F 14.0 °F 93% 30.25 in 10.0 mi West 8.1 mph - N/A   Clear
11:44 PM 15.8 °F 4.2 °F 14.0 °F 93% 30.24 in 10.0 mi WSW 9.2 mph 17.3 mph N/A   Clear